Volver al catálogo

STARLINK-31396

ActivoComunicacionesVLEO
NORAD 59409·PAYLOAD·🇺🇸 United States

Lanzado Apr 5, 2024 desde Cape Canaveral Space Force Station

Loading…

Próximos Pases (próximas 24 horas)

TLE

ActualizadoSource: CelesTrak SupGP

Época: Sep 14, 2026, 22:23 UTC

1 59409C 24064M   26257.93312500  .00071417  00000+0  25862-2 0  2579
2 59409  43.0040  56.9211 0001700 269.6327 299.1056 15.27548810    11

Sigue STARLINK-31396 en tiempo real con AllMySat

Download on the App Store